Time,TemperatureF,DewpointF,PressureIn,WindDirection,WindDirectionDegrees,WindSpeedMPH,WindSpeedGustMPH,Humidity,HourlyPrecipIn,Conditions,Clouds,dailyrainin,SoftwareType,DateUTC
2013-07-24 00:02:00,71.0,46.7,29.86,NW,324,0.0,0.0,42,0.00,,,0.00,Wunderground v.1.15,2013-07-24 07:02:00,
2013-07-24 00:07:00,70.9,44.0,29.86,NW,324,0.0,0.0,38,0.00,,,0.00,Wunderground v.1.15,2013-07-24 07:07:00,
2013-07-24 00:14:00,71.0,41.2,29.86,NW,324,0.0,0.0,34,0.00,,,0.00,Wunderground v.1.15,2013-07-24 07:14:00,
2013-07-24 00:20:00,71.0,41.2,29.86,NW,324,0.0,0.0,34,0.00,,,0.00,Wunderground v.1.15,2013-07-24 07:20:00,
2013-07-24 00:25:00,70.8,41.0,29.86,NW,324,0.0,0.0,34,0.00,,,0.00,Wunderground v.1.15,2013-07-24 07:25:00,
2013-07-24 00:31:00,70.6,40.1,29.86,NW,324,0.0,0.0,33,0.00,,,0.00,Wunderground v.1.15,2013-07-24 07:31:00,
2013-07-24 00:38:00,70.5,39.2,29.86,NW,324,0.0,0.0,32,0.00,,,0.00,Wunderground v.1.15,2013-07-24 07:38:00,
2013-07-24 00:44:00,70.4,38.3,29.86,NW,324,0.0,0.0,31,0.00,,,0.00,Wunderground v.1.15,2013-07-24 07:44:00,
2013-07-24 00:49:00,70.4,38.3,29.86,NW,324,0.0,0.0,31,0.00,,,0.00,Wunderground v.1.15,2013-07-24 07:49:00,
2013-07-24 00:55:00,70.1,40.4,29.86,NW,324,0.0,0.0,34,0.00,,,0.00,Wunderground v.1.15,2013-07-24 07:55:00,
2013-07-24 01:01:00,69.7,40.8,29.87,NW,324,0.0,0.0,35,0.00,,,0.00,Wunderground v.1.15,2013-07-24 08:01:00,
2013-07-24 01:08:00,69.1,41.7,29.87,NW,324,0.0,1.0,37,0.00,,,0.00,Wunderground v.1.15,2013-07-24 08:08:00,
2013-07-24 01:14:00,68.3,42.4,29.87,NW,324,1.0,1.0,39,0.00,,,0.00,Wunderground v.1.15,2013-07-24 08:14:00,
2013-07-24 01:19:00,67.7,43.1,29.87,NW,324,0.0,1.0,41,0.00,,,0.00,Wunderground v.1.15,2013-07-24 08:19:00,
2013-07-24 01:25:00,67.1,45.6,29.87,NW,324,0.0,1.0,46,0.00,,,0.00,Wunderground v.1.15,2013-07-24 08:25:00,
2013-07-24 01:32:00,66.0,46.3,29.87,NW,324,0.0,0.0,49,0.00,,,0.00,Wunderground v.1.15,2013-07-24 08:32:00,
2013-07-24 01:37:00,65.3,46.2,29.87,NW,324,0.0,0.0,50,0.00,,,0.00,Wunderground v.1.15,2013-07-24 08:37:00,
2013-07-24 01:44:00,64.9,46.3,29.87,NW,324,0.0,0.0,51,0.00,,,0.00,Wunderground v.1.15,2013-07-24 08:44:00,
2013-07-24 01:50:00,64.3,45.8,29.86,NW,324,0.0,0.0,51,0.00,,,0.00,Wunderground v.1.15,2013-07-24 08:50:00,
2013-07-24 01:55:00,63.9,46.4,29.86,NW,324,0.0,0.0,53,0.00,,,0.00,Wunderground v.1.15,2013-07-24 08:55:00,
2013-07-24 02:02:00,63.2,46.8,29.86,NW,324,0.0,2.0,55,0.00,,,0.00,Wunderground v.1.15,2013-07-24 09:02:00,
2013-07-24 02:07:00,62.7,46.3,29.86,NW,324,1.0,2.0,55,0.00,,,0.00,Wunderground v.1.15,2013-07-24 09:07:00,
2013-07-24 02:14:00,62.5,46.6,29.86,NW,324,1.0,3.0,56,0.00,,,0.00,Wunderground v.1.15,2013-07-24 09:14:00,
2013-07-24 02:19:00,62.1,45.7,29.86,West,277,1.0,3.0,55,0.00,,,0.00,Wunderground v.1.15,2013-07-24 09:19:00,
2013-07-24 02:26:00,61.9,46.0,29.86,West,277,1.0,3.0,56,0.00,,,0.00,Wunderground v.1.15,2013-07-24 09:26:00,
2013-07-24 02:32:00,61.7,45.4,29.86,West,277,1.0,1.0,55,0.00,,,0.00,Wunderground v.1.15,2013-07-24 09:32:00,
2013-07-24 02:37:00,61.6,45.3,29.86,West,277,0.0,1.0,55,0.00,,,0.00,Wunderground v.1.15,2013-07-24 09:37:00,
2013-07-24 02:43:00,61.4,45.1,29.86,West,277,0.0,0.0,55,0.00,,,0.00,Wunderground v.1.15,2013-07-24 09:43:00,
2013-07-24 02:50:00,61.1,45.3,29.86,West,277,0.0,2.0,56,0.00,,,0.00,Wunderground v.1.15,2013-07-24 09:50:00,
2013-07-24 02:56:00,60.7,45.4,29.87,West,277,1.0,2.0,57,0.00,,,0.00,Wunderground v.1.15,2013-07-24 09:56:00,
2013-07-24 03:01:00,60.4,44.6,29.87,West,277,1.0,1.0,56,0.00,,,0.00,Wunderground v.1.15,2013-07-24 10:01:00,
2013-07-24 03:08:00,60.5,45.2,29.87,West,277,1.0,1.0,57,0.00,,,0.00,Wunderground v.1.15,2013-07-24 10:08:00,
2013-07-24 03:14:00,60.4,45.1,29.86,West,277,0.0,0.0,57,0.00,,,0.00,Wunderground v.1.15,2013-07-24 10:14:00,
2013-07-24 03:19:00,60.3,46.4,29.86,West,277,0.0,0.0,60,0.00,,,0.00,Wunderground v.1.15,2013-07-24 10:19:00,
2013-07-24 03:25:00,60.1,45.7,29.86,West,277,0.0,0.0,59,0.00,,,0.00,Wunderground v.1.15,2013-07-24 10:25:00,
2013-07-24 03:32:00,60.0,45.2,29.86,West,277,0.0,0.0,58,0.00,,,0.00,Wunderground v.1.15,2013-07-24 10:32:00,
2013-07-24 03:38:00,60.2,44.9,29.86,West,277,0.0,0.0,57,0.00,,,0.00,Wunderground v.1.15,2013-07-24 10:38:00,
2013-07-24 03:43:00,60.6,44.8,29.86,West,277,0.0,0.0,56,0.00,,,0.00,Wunderground v.1.15,2013-07-24 10:43:00,
2013-07-24 03:50:00,61.0,45.2,29.86,West,277,0.0,0.0,56,0.00,,,0.00,Wunderground v.1.15,2013-07-24 10:50:00,
2013-07-24 03:56:00,60.9,45.6,29.86,West,277,0.0,1.0,57,0.00,,,0.00,Wunderground v.1.15,2013-07-24 10:56:00,
2013-07-24 04:01:00,60.9,46.0,29.86,West,277,0.0,0.0,58,0.00,,,0.00,Wunderground v.1.15,2013-07-24 11:01:00,
2013-07-24 04:07:00,60.9,45.1,29.86,West,277,0.0,0.0,56,0.00,,,0.00,Wunderground v.1.15,2013-07-24 11:07:00,
2013-07-24 04:14:00,60.8,46.4,29.86,West,277,0.0,0.0,59,0.00,,,0.00,Wunderground v.1.15,2013-07-24 11:14:00,
2013-07-24 04:20:00,60.7,45.4,29.86,West,277,0.0,1.0,57,0.00,,,0.00,Wunderground v.1.15,2013-07-24 11:20:00,
2013-07-24 04:25:00,60.8,45.9,29.86,West,277,0.0,1.0,58,0.00,,,0.00,Wunderground v.1.15,2013-07-24 11:25:00,
2013-07-24 04:32:00,60.5,45.2,29.86,West,277,1.0,1.0,57,0.00,,,0.00,Wunderground v.1.15,2013-07-24 11:32:00,
2013-07-24 04:38:00,60.6,45.7,29.86,West,276,1.0,3.0,58,0.00,,,0.00,Wunderground v.1.15,2013-07-24 11:38:00,
2013-07-24 04:44:00,60.7,46.7,29.85,West,276,1.0,1.0,60,0.00,,,0.00,Wunderground v.1.15,2013-07-24 11:44:00,
2013-07-24 04:49:00,60.5,46.1,29.86,West,276,0.0,1.0,59,0.00,,,0.00,Wunderground v.1.15,2013-07-24 11:49:00,
2013-07-24 04:56:00,60.5,45.6,29.86,West,276,0.0,1.0,58,0.00,,,0.00,Wunderground v.1.15,2013-07-24 11:56:00,
2013-07-24 05:02:00,60.5,45.6,29.85,West,276,0.0,0.0,58,0.00,,,0.00,Wunderground v.1.15,2013-07-24 12:02:00,
2013-07-24 05:08:00,60.4,45.5,29.85,West,276,0.0,0.0,58,0.00,,,0.00,Wunderground v.1.15,2013-07-24 12:08:00,
2013-07-24 05:13:00,60.5,45.6,29.85,West,276,0.0,0.0,58,0.00,,,0.00,Wunderground v.1.15,2013-07-24 12:13:00,
2013-07-24 05:20:00,60.1,46.2,29.85,West,276,0.0,0.0,60,0.00,,,0.00,Wunderground v.1.15,2013-07-24 12:20:00,
2013-07-24 05:26:00,59.7,45.3,29.85,West,276,0.0,0.0,59,0.00,,,0.00,Wunderground v.1.15,2013-07-24 12:26:00,
2013-07-24 05:31:00,59.5,45.6,29.85,West,276,0.0,0.0,60,0.00,,,0.00,Wunderground v.1.15,2013-07-24 12:31:00,
2013-07-24 05:37:00,59.3,46.3,29.85,West,276,0.0,0.0,62,0.00,,,0.00,Wunderground v.1.15,2013-07-24 12:37:00,
2013-07-24 05:44:00,59.2,45.8,29.85,West,276,0.0,0.0,61,0.00,,,0.00,Wunderground v.1.15,2013-07-24 12:44:00,
2013-07-24 05:50:00,59.0,46.0,29.86,West,276,1.0,3.0,62,0.00,,,0.00,Wunderground v.1.15,2013-07-24 12:50:00,
2013-07-24 05:55:00,58.6,45.6,29.86,West,275,2.0,3.0,62,0.00,,,0.00,Wunderground v.1.15,2013-07-24 12:55:00,
2013-07-24 06:02:00,58.7,45.3,29.86,West,275,1.0,1.0,61,0.00,,,0.00,Wunderground v.1.15,2013-07-24 13:02:00,
2013-07-24 06:08:00,58.9,45.0,29.86,West,275,0.0,1.0,60,0.00,,,0.00,Wunderground v.1.15,2013-07-24 13:08:00,
2013-07-24 06:14:00,59.1,46.9,29.86,West,275,0.0,0.0,64,0.00,,,0.00,Wunderground v.1.15,2013-07-24 13:14:00,
2013-07-24 06:19:00,59.1,45.2,29.86,West,275,0.0,2.0,60,0.00,,,0.00,Wunderground v.1.15,2013-07-24 13:19:00,
2013-07-24 06:26:00,59.3,44.5,29.86,West,275,1.0,2.0,58,0.00,,,0.00,Wunderground v.1.15,2013-07-24 13:26:00,
2013-07-24 06:32:00,59.6,44.8,29.86,West,275,0.0,1.0,58,0.00,,,0.00,Wunderground v.1.15,2013-07-24 13:32:00,
2013-07-24 06:37:00,59.9,44.6,29.86,West,275,0.0,1.0,57,0.00,,,0.00,Wunderground v.1.15,2013-07-24 13:37:00,
2013-07-24 06:43:00,60.3,44.1,29.87,West,275,1.0,2.0,55,0.00,,,0.00,Wunderground v.1.15,2013-07-24 13:43:00,
2013-07-24 06:50:00,60.6,44.3,29.87,West,275,0.0,1.0,55,0.00,,,0.00,Wunderground v.1.15,2013-07-24 13:50:00,
2013-07-24 06:56:00,60.6,44.3,29.87,West,275,0.0,1.0,55,0.00,,,0.00,Wunderground v.1.15,2013-07-24 13:56:00,
2013-07-24 07:01:00,60.7,44.4,29.87,West,275,0.0,0.0,55,0.00,,,0.00,Wunderground v.1.15,2013-07-24 14:01:00,
2013-07-24 07:07:00,61.0,45.7,29.87,West,275,0.0,0.0,57,0.00,,,0.00,Wunderground v.1.15,2013-07-24 14:07:00,
2013-07-24 07:14:00,61.3,46.4,29.86,West,275,0.0,0.0,58,0.00,,,0.00,Wunderground v.1.15,2013-07-24 14:14:00,
2013-07-24 07:20:00,61.6,46.7,29.86,West,275,0.0,0.0,58,0.00,,,0.00,Wunderground v.1.15,2013-07-24 14:20:00,
2013-07-24 07:25:00,62.0,45.6,29.86,West,275,0.0,0.0,55,0.00,,,0.00,Wunderground v.1.15,2013-07-24 14:25:00,
2013-07-24 07:32:00,63.2,47.2,29.86,West,275,0.0,0.0,56,0.00,,,0.00,Wunderground v.1.15,2013-07-24 14:32:00,
2013-07-24 07:38:00,63.8,48.3,29.86,West,275,0.0,1.0,57,0.00,,,0.00,Wunderground v.1.15,2013-07-24 14:38:00,
2013-07-24 07:44:00,64.0,48.9,29.87,West,275,1.0,1.0,58,0.00,,,0.00,Wunderground v.1.15,2013-07-24 14:44:00,
2013-07-24 07:49:00,64.6,48.5,29.86,West,275,1.0,1.0,56,0.00,,,0.00,Wunderground v.1.15,2013-07-24 14:49:00,
2013-07-24 07:56:00,65.7,49.1,29.86,West,275,0.0,1.0,55,0.00,,,0.00,Wunderground v.1.15,2013-07-24 14:56:00,
2013-07-24 08:02:00,66.8,49.1,29.86,West,275,0.0,0.0,53,0.00,,,0.00,Wunderground v.1.15,2013-07-24 15:02:00,
2013-07-24 08:07:00,67.4,48.6,29.86,West,275,0.0,1.0,51,0.00,,,0.00,Wunderground v.1.15,2013-07-24 15:07:00,
2013-07-24 08:13:00,67.9,49.1,29.86,West,275,0.0,0.0,51,0.00,,,0.00,Wunderground v.1.15,2013-07-24 15:13:00,
2013-07-24 08:20:00,68.5,49.7,29.86,West,275,0.0,0.0,51,0.00,,,0.00,Wunderground v.1.15,2013-07-24 15:20:00,
2013-07-24 08:26:00,69.2,49.2,29.86,West,275,0.0,0.0,49,0.00,,,0.00,Wunderground v.1.15,2013-07-24 15:26:00,
2013-07-24 08:31:00,69.9,49.9,29.86,West,275,0.0,0.0,49,0.00,,,0.00,Wunderground v.1.15,2013-07-24 15:31:00,
2013-07-24 08:37:00,70.8,49.0,29.86,West,275,0.0,0.0,46,0.00,,,0.00,Wunderground v.1.15,2013-07-24 15:37:00,
2013-07-24 08:44:00,71.9,49.4,29.86,West,275,0.0,0.0,45,0.00,,,0.00,Wunderground v.1.15,2013-07-24 15:44:00,
2013-07-24 08:50:00,73.1,48.6,29.85,West,275,0.0,0.0,42,0.00,,,0.00,Wunderground v.1.15,2013-07-24 15:50:00,
2013-07-24 08:55:00,74.2,48.3,29.86,West,275,0.0,0.0,40,0.00,,,0.00,Wunderground v.1.15,2013-07-24 15:55:00,
2013-07-24 09:02:00,75.0,47.7,29.85,West,275,0.0,0.0,38,0.00,,,0.00,Wunderground v.1.15,2013-07-24 16:02:00,
2013-07-24 09:08:00,76.1,48.6,29.86,West,275,0.0,2.0,38,0.00,,,0.00,Wunderground v.1.15,2013-07-24 16:08:00,
2013-07-24 09:14:00,76.7,48.5,29.85,West,275,1.0,2.0,37,0.00,,,0.00,Wunderground v.1.15,2013-07-24 16:14:00,
2013-07-24 09:19:00,76.5,47.6,29.86,West,275,1.0,1.0,36,0.00,,,0.00,Wunderground v.1.15,2013-07-24 16:19:00,
2013-07-24 09:25:00,76.2,48.0,29.86,West,275,1.0,1.0,37,0.00,,,0.00,Wunderground v.1.15,2013-07-24 16:25:00,
2013-07-24 09:32:00,77.1,46.6,29.85,West,275,0.0,4.0,34,0.00,,,0.00,Wunderground v.1.15,2013-07-24 16:32:00,
2013-07-24 09:38:00,78.0,44.9,29.85,West,275,1.0,4.0,31,0.00,,,0.00,Wunderground v.1.15,2013-07-24 16:38:00,
2013-07-24 09:43:00,78.7,44.7,29.85,West,275,1.0,2.0,30,0.00,,,0.00,Wunderground v.1.15,2013-07-24 16:43:00,
2013-07-24 09:50:00,80.1,43.1,29.85,West,275,1.0,1.0,27,0.00,,,0.00,Wunderground v.1.15,2013-07-24 16:50:00,
2013-07-24 09:56:00,80.9,39.6,29.85,West,275,1.0,3.0,23,0.00,,,0.00,Wunderground v.1.15,2013-07-24 16:56:00,
2013-07-24 10:01:00,79.5,40.6,29.86,West,275,2.0,2.0,25,0.00,,,0.00,Wunderground v.1.15,2013-07-24 17:01:00,
2013-07-24 10:07:00,79.2,37.1,29.85,West,275,1.0,2.0,22,0.00,,,0.00,Wunderground v.1.15,2013-07-24 17:07:00,
2013-07-24 10:14:00,79.6,39.6,29.85,West,275,1.0,2.0,24,0.00,,,0.00,Wunderground v.1.15,2013-07-24 17:14:00,
2013-07-24 10:20:00,79.9,37.6,29.85,West,275,1.0,1.0,22,0.00,,,0.00,Wunderground v.1.15,2013-07-24 17:20:00,
2013-07-24 10:26:00,80.6,37.0,29.85,West,275,0.0,1.0,21,0.00,,,0.00,Wunderground v.1.15,2013-07-24 17:26:00,
2013-07-24 10:31:00,80.7,37.1,29.85,West,275,1.0,1.0,21,0.00,,,0.00,Wunderground v.1.15,2013-07-24 17:31:00,
2013-07-24 10:38:00,81.3,37.6,29.84,West,275,0.0,2.0,21,0.00,,,0.00,Wunderground v.1.15,2013-07-24 17:38:00,
2013-07-24 10:44:00,82.1,37.0,29.84,West,280,2.0,3.0,20,0.00,,,0.00,Wunderground v.1.15,2013-07-24 17:44:00,
2013-07-24 10:49:00,83.0,40.2,29.84,West,280,2.0,2.0,22,0.00,,,0.00,Wunderground v.1.15,2013-07-24 17:49:00,
2013-07-24 10:55:00,83.2,40.4,29.85,West,280,1.0,2.0,22,0.00,,,0.00,Wunderground v.1.15,2013-07-24 17:55:00,
2013-07-24 11:02:00,82.4,38.5,29.85,West,259,2.0,4.0,21,0.00,,,0.00,Wunderground v.1.15,2013-07-24 18:02:00,
2013-07-24 11:08:00,81.8,38.0,29.85,WSW,251,3.0,5.0,21,0.00,,,0.00,Wunderground v.1.15,2013-07-24 18:08:00,
2013-07-24 11:13:00,81.4,35.2,29.84,WSW,251,2.0,3.0,19,0.00,,,0.00,Wunderground v.1.15,2013-07-24 18:13:00,
2013-07-24 11:19:00,82.1,34.4,29.84,WSW,251,1.0,1.0,18,0.00,,,0.00,Wunderground v.1.15,2013-07-24 18:19:00,
2013-07-24 11:26:00,82.7,37.5,29.84,WSW,251,1.0,5.0,20,0.00,,,0.00,Wunderground v.1.15,2013-07-24 18:26:00,
2013-07-24 11:32:00,82.6,36.1,29.84,West,268,3.0,3.0,19,0.00,,,0.00,Wunderground v.1.15,2013-07-24 18:32:00,
2013-07-24 11:37:00,83.5,35.5,29.84,West,274,2.0,3.0,18,0.00,,,0.00,Wunderground v.1.15,2013-07-24 18:37:00,
2013-07-24 11:44:00,84.2,33.1,29.84,West,274,1.0,1.0,16,0.00,,,0.00,Wunderground v.1.15,2013-07-24 18:44:00,
2013-07-24 11:50:00,84.1,34.6,29.83,WNW,293,3.0,3.0,17,0.00,,,0.00,Wunderground v.1.15,2013-07-24 18:50:00,
2013-07-24 11:56:00,84.5,31.8,29.83,WNW,293,3.0,3.0,15,0.00,,,0.00,Wunderground v.1.15,2013-07-24 18:56:00,
2013-07-24 12:02:00,85.2,30.6,29.84,WNW,293,1.0,1.0,14,0.00,,,0.00,Wunderground v.1.15,2013-07-24 19:02:00,
2013-07-24 12:08:00,85.6,30.9,29.83,WNW,293,1.0,2.0,14,0.00,,,0.00,Wunderground v.1.15,2013-07-24 19:08:00,
2013-07-24 12:13:00,86.8,30.0,29.83,WNW,293,1.0,1.0,13,0.00,,,0.00,Wunderground v.1.15,2013-07-24 19:13:00,
2013-07-24 12:20:00,87.4,26.4,29.83,WNW,293,1.0,3.0,11,0.00,,,0.00,Wunderground v.1.15,2013-07-24 19:20:00,
2013-07-24 12:26:00,87.3,26.4,29.83,WNW,293,1.0,3.0,11,0.00,,,0.00,Wunderground v.1.15,2013-07-24 19:26:00,
2013-07-24 12:31:00,87.9,34.5,29.83,WNW,293,1.0,1.0,15,0.00,,,0.00,Wunderground v.1.15,2013-07-24 19:31:00,
2013-07-24 12:37:00,87.8,32.7,29.82,WNW,293,1.0,4.0,14,0.00,,,0.00,Wunderground v.1.15,2013-07-24 19:37:00,
2013-07-24 12:44:00,86.6,27.9,29.82,ENE,74,3.0,5.0,12,0.00,,,0.00,Wunderground v.1.15,2013-07-24 19:44:00,
2013-07-24 12:50:00,86.0,25.4,29.82,ENE,73,4.0,4.0,11,0.00,,,0.00,Wunderground v.1.15,2013-07-24 19:50:00,
2013-07-24 12:55:00,86.3,29.6,29.82,ENE,73,2.0,4.0,13,0.00,,,0.00,Wunderground v.1.15,2013-07-24 19:55:00,
2013-07-24 13:02:00,87.2,32.2,29.82,ENE,73,1.0,3.0,14,0.00,,,0.00,Wunderground v.1.15,2013-07-24 20:02:00,
2013-07-24 13:08:00,87.5,30.6,29.82,ENE,58,2.0,4.0,13,0.00,,,0.00,Wunderground v.1.15,2013-07-24 20:08:00,
2013-07-24 13:13:00,88.1,27.0,29.82,North,355,3.0,4.0,11,0.00,,,0.00,Wunderground v.1.15,2013-07-24 20:13:00,
2013-07-24 13:19:00,87.1,28.3,29.82,NNW,342,4.0,4.0,12,0.00,,,0.00,Wunderground v.1.15,2013-07-24 20:19:00,
2013-07-24 13:25:00,86.6,25.8,29.82,NNW,342,3.0,4.0,11,0.00,,,0.00,Wunderground v.1.15,2013-07-24 20:25:00,
2013-07-24 13:32:00,86.9,26.0,29.82,NNW,342,1.0,2.0,11,0.00,,,0.00,Wunderground v.1.15,2013-07-24 20:32:00,
2013-07-24 13:38:00,86.9,28.2,29.82,NNW,342,2.0,4.0,12,0.00,,,0.00,Wunderground v.1.15,2013-07-24 20:38:00,
2013-07-24 13:43:00,87.1,32.1,29.82,NNW,342,2.0,4.0,14,0.00,,,0.00,Wunderground v.1.15,2013-07-24 20:43:00,
2013-07-24 13:49:00,87.2,30.4,29.82,NNW,342,2.0,5.0,13,0.00,,,0.00,Wunderground v.1.15,2013-07-24 20:49:00,
2013-07-24 13:56:00,87.4,24.1,29.81,NNW,342,1.0,5.0,10,0.00,,,0.00,Wunderground v.1.15,2013-07-24 20:56:00,
2013-07-24 14:02:00,87.8,32.7,29.81,NNW,342,1.0,1.0,14,0.00,,,0.00,Wunderground v.1.15,2013-07-24 21:02:00,
2013-07-24 14:08:00,88.3,29.2,29.81,NNW,342,0.0,1.0,12,0.00,,,0.00,Wunderground v.1.15,2013-07-24 21:08:00,
2013-07-24 14:13:00,88.4,29.3,29.81,NNW,342,1.0,3.0,12,0.00,,,0.00,Wunderground v.1.15,2013-07-24 21:13:00,
2013-07-24 14:20:00,88.0,24.6,29.81,NNW,342,1.0,1.0,10,0.00,,,0.00,Wunderground v.1.15,2013-07-24 21:20:00,
2013-07-24 14:26:00,88.1,29.1,29.81,NNW,342,1.0,4.0,12,0.00,,,0.00,Wunderground v.1.15,2013-07-24 21:26:00,
2013-07-24 14:31:00,87.6,34.2,29.81,NNW,342,2.0,2.0,15,0.00,,,0.00,Wunderground v.1.15,2013-07-24 21:31:00,
2013-07-24 14:37:00,87.9,32.7,29.81,NNW,342,3.0,6.0,14,0.00,,,0.00,Wunderground v.1.15,2013-07-24 21:37:00,
2013-07-24 14:44:00,88.2,34.7,29.81,NNW,342,3.0,5.0,15,0.00,,,0.00,Wunderground v.1.15,2013-07-24 21:44:00,
2013-07-24 14:50:00,88.2,33.0,29.81,NNW,342,3.0,3.0,14,0.00,,,0.00,Wunderground v.1.15,2013-07-24 21:50:00,
2013-07-24 14:55:00,88.3,36.4,29.81,NNW,342,3.0,5.0,16,0.00,,,0.00,Wunderground v.1.15,2013-07-24 21:55:00,
2013-07-24 15:02:00,88.5,36.6,29.81,NNW,342,2.0,2.0,16,0.00,,,0.00,Wunderground v.1.15,2013-07-24 22:02:00,
2013-07-24 15:08:00,88.8,33.4,29.80,NNW,342,1.0,2.0,14,0.00,,,0.00,Wunderground v.1.15,2013-07-24 22:08:00,
2013-07-24 15:13:00,89.3,33.8,29.80,NNW,342,1.0,2.0,14,0.00,,,0.00,Wunderground v.1.15,2013-07-24 22:13:00,
2013-07-24 15:19:00,89.8,36.0,29.80,NNW,342,1.0,3.0,15,0.00,,,0.00,Wunderground v.1.15,2013-07-24 22:19:00,
2013-07-24 15:26:00,89.3,37.2,29.80,NNW,342,2.0,5.0,16,0.00,,,0.00,Wunderground v.1.15,2013-07-24 22:26:00,
2013-07-24 15:32:00,88.5,34.9,29.80,NNW,342,3.0,3.0,15,0.00,,,0.00,Wunderground v.1.15,2013-07-24 22:32:00,
2013-07-24 15:37:00,88.6,38.2,29.79,NNW,342,1.0,3.0,17,0.00,,,0.00,Wunderground v.1.15,2013-07-24 22:37:00,
2013-07-24 15:43:00,88.9,35.3,29.79,NNW,342,1.0,4.0,15,0.00,,,0.00,Wunderground v.1.15,2013-07-24 22:43:00,
2013-07-24 15:49:00,89.0,35.3,29.79,NW,324,3.0,5.0,15,0.00,,,0.00,Wunderground v.1.15,2013-07-24 22:49:00,
2013-07-24 15:56:00,89.4,35.7,29.79,WNW,300,4.0,6.0,15,0.00,,,0.00,Wunderground v.1.15,2013-07-24 22:56:00,
2013-07-24 16:02:00,90.5,34.8,29.79,WNW,300,3.0,3.0,14,0.00,,,0.00,Wunderground v.1.15,2013-07-24 23:02:00,
2013-07-24 16:08:00,90.9,33.2,29.79,WNW,300,2.0,3.0,13,0.00,,,0.00,Wunderground v.1.15,2013-07-24 23:08:00,
2013-07-24 16:14:00,91.2,38.7,29.79,WNW,300,1.0,4.0,16,0.00,,,0.00,Wunderground v.1.15,2013-07-24 23:14:00,
2013-07-24 16:19:00,92.3,36.2,29.79,WNW,302,3.0,7.0,14,0.00,,,0.00,Wunderground v.1.15,2013-07-24 23:19:00,
2013-07-24 16:26:00,93.2,36.9,29.79,WNW,302,3.0,7.0,14,0.00,,,0.00,Wunderground v.1.15,2013-07-24 23:26:00,
2013-07-24 16:32:00,93.5,37.2,29.79,WNW,302,2.0,5.0,14,0.00,,,0.00,Wunderground v.1.15,2013-07-24 23:32:00,
2013-07-24 16:38:00,93.3,37.0,29.79,WNW,302,2.0,7.0,14,0.00,,,0.00,Wunderground v.1.15,2013-07-24 23:38:00,
2013-07-24 16:44:00,92.1,37.8,29.78,WNW,302,3.0,6.0,15,0.00,,,0.00,Wunderground v.1.15,2013-07-24 23:44:00,
2013-07-24 16:49:00,91.7,39.1,29.79,WNW,298,4.0,7.0,16,0.00,,,0.00,Wunderground v.1.15,2013-07-24 23:49:00,
2013-07-24 16:56:00,91.0,43.0,29.79,WNW,298,4.0,7.0,19,0.00,,,0.00,Wunderground v.1.15,2013-07-24 23:56:00,
2013-07-24 17:02:00,90.5,42.6,29.79,WNW,300,4.0,6.0,19,0.00,,,0.00,Wunderground v.1.15,2013-07-25 00:02:00,
2013-07-24 17:08:00,90.1,43.6,29.79,NNW,330,6.0,11.0,20,0.00,,,0.00,Wunderground v.1.15,2013-07-25 00:08:00,
2013-07-24 17:13:00,90.1,42.3,29.79,NW,315,6.0,8.0,19,0.00,,,0.00,Wunderground v.1.15,2013-07-25 00:13:00,
2013-07-24 17:20:00,90.8,44.2,29.79,NNW,329,6.0,6.0,20,0.00,,,0.00,Wunderground v.1.15,2013-07-25 00:20:00,
2013-07-24 17:26:00,91.3,44.6,29.79,NNW,339,6.0,9.0,20,0.00,,,0.00,Wunderground v.1.15,2013-07-25 00:26:00,
2013-07-24 17:32:00,90.7,44.1,29.79,WNW,294,7.0,7.0,20,0.00,,,0.00,Wunderground v.1.15,2013-07-25 00:32:00,
2013-07-24 17:37:00,90.5,42.6,29.79,NW,309,8.0,10.0,19,0.00,,,0.00,Wunderground v.1.15,2013-07-25 00:37:00,
2013-07-24 17:44:00,90.4,43.9,29.79,NNW,327,8.0,8.0,20,0.00,,,0.00,Wunderground v.1.15,2013-07-25 00:44:00,
2013-07-24 17:50:00,90.8,44.2,29.79,NW,314,6.0,6.0,20,0.00,,,0.00,Wunderground v.1.15,2013-07-25 00:50:00,
2013-07-24 17:55:00,91.2,41.8,29.79,NW,312,5.0,6.0,18,0.00,,,0.00,Wunderground v.1.15,2013-07-25 00:55:00,
2013-07-24 18:01:00,90.8,41.4,29.78,NW,313,6.0,7.0,18,0.00,,,0.00,Wunderground v.1.15,2013-07-25 01:01:00,
2013-07-24 18:07:00,91.0,44.4,29.78,NW,313,6.0,7.0,20,0.00,,,0.00,Wunderground v.1.15,2013-07-25 01:07:00,
2013-07-24 18:14:00,90.6,44.0,29.78,NW,306,5.0,6.0,20,0.00,,,0.00,Wunderground v.1.15,2013-07-25 01:14:00,
2013-07-24 18:20:00,90.4,45.1,29.78,NNW,338,7.0,7.0,21,0.00,,,0.00,Wunderground v.1.15,2013-07-25 01:20:00,
2013-07-24 18:25:00,89.8,43.4,29.78,NNW,343,7.0,8.0,20,0.00,,,0.00,Wunderground v.1.15,2013-07-25 01:25:00,
2013-07-24 18:32:00,89.5,45.6,29.79,NW,305,7.0,7.0,22,0.00,,,0.00,Wunderground v.1.15,2013-07-25 01:32:00,
2013-07-24 18:38:00,89.1,45.3,29.79,NW,309,6.0,13.0,22,0.00,,,0.00,Wunderground v.1.15,2013-07-25 01:38:00,
2013-07-24 18:43:00,88.5,43.6,29.79,WNW,303,6.0,8.0,21,0.00,,,0.00,Wunderground v.1.15,2013-07-25 01:43:00,
2013-07-24 18:49:00,88.1,45.6,29.79,West,280,7.0,8.0,23,0.00,,,0.00,Wunderground v.1.15,2013-07-25 01:49:00,
2013-07-24 18:56:00,88.0,45.6,29.79,NW,312,7.0,12.0,23,0.00,,,0.00,Wunderground v.1.15,2013-07-25 01:56:00,
2013-07-24 19:02:00,87.9,44.3,29.79,NW,311,6.0,9.0,22,0.00,,,0.00,Wunderground v.1.15,2013-07-25 02:02:00,
2013-07-24 19:08:00,87.9,45.5,29.80,NW,305,5.0,9.0,23,0.00,,,0.00,Wunderground v.1.15,2013-07-25 02:08:00,
2013-07-24 19:13:00,87.3,43.8,29.80,NW,304,6.0,6.0,22,0.00,,,0.00,Wunderground v.1.15,2013-07-25 02:13:00,
2013-07-24 19:20:00,86.4,43.1,29.80,WNW,300,6.0,6.0,22,0.00,,,0.00,Wunderground v.1.15,2013-07-25 02:20:00,
2013-07-24 19:25:00,85.9,43.8,29.80,NW,315,6.0,8.0,23,0.00,,,0.00,Wunderground v.1.15,2013-07-25 02:25:00,
2013-07-24 19:31:00,85.5,43.5,29.80,NW,314,5.0,6.0,23,0.00,,,0.00,Wunderground v.1.15,2013-07-25 02:31:00,
2013-07-24 19:37:00,85.2,44.3,29.81,NW,315,6.0,7.0,24,0.00,,,0.00,Wunderground v.1.15,2013-07-25 02:37:00,
2013-07-24 19:44:00,85.1,44.2,29.80,NW,308,4.0,6.0,24,0.00,,,0.00,Wunderground v.1.15,2013-07-25 02:44:00,
2013-07-24 19:50:00,84.6,43.8,29.81,NNW,331,4.0,4.0,24,0.00,,,0.00,Wunderground v.1.15,2013-07-25 02:50:00,
2013-07-24 19:55:00,84.1,44.5,29.81,NNW,327,4.0,5.0,25,0.00,,,0.00,Wunderground v.1.15,2013-07-25 02:55:00,
2013-07-24 20:01:00,83.9,44.3,29.81,NW,315,4.0,4.0,25,0.00,,,0.00,Wunderground v.1.15,2013-07-25 03:01:00,
2013-07-24 20:08:00,83.9,44.3,29.81,NW,315,4.0,4.0,25,0.00,,,0.00,Wunderground v.1.15,2013-07-25 03:08:00,
2013-07-24 20:13:00,83.6,44.1,29.81,NW,315,3.0,5.0,25,0.00,,,0.00,Wunderground v.1.15,2013-07-25 03:13:00,
2013-07-24 20:19:00,83.3,44.8,29.81,NW,316,2.0,4.0,26,0.00,,,0.00,Wunderground v.1.15,2013-07-25 03:19:00,
2013-07-24 20:25:00,82.8,44.4,29.81,NW,316,2.0,4.0,26,0.00,,,0.00,Wunderground v.1.15,2013-07-25 03:25:00,
2013-07-24 20:34:00,82.0,43.7,29.81,NW,316,1.0,3.0,26,0.00,,,0.00,Wunderground v.1.15,2013-07-25 03:34:00,
2013-07-24 20:39:00,81.4,43.2,29.82,NW,316,1.0,1.0,26,0.00,,,0.00,Wunderground v.1.15,2013-07-25 03:39:00,
2013-07-24 20:45:00,81.1,43.9,29.82,NW,316,0.0,1.0,27,0.00,,,0.00,Wunderground v.1.15,2013-07-25 03:45:00,
2013-07-24 20:52:00,80.6,44.5,29.82,NW,316,1.0,2.0,28,0.00,,,0.00,Wunderground v.1.15,2013-07-25 03:52:00,
2013-07-24 20:57:00,80.1,44.0,29.82,NW,316,1.0,2.0,28,0.00,,,0.00,Wunderground v.1.15,2013-07-25 03:57:00,
2013-07-24 21:01:00,79.7,44.6,29.82,NW,319,2.0,5.0,29,0.00,,,0.00,Wunderground v.1.15,2013-07-25 04:01:00,
2013-07-24 21:03:00,79.6,44.5,29.82,NW,319,2.0,5.0,29,0.00,,,0.00,Wunderground v.1.15,2013-07-25 04:03:00,
2013-07-24 21:07:00,79.2,44.2,29.82,NW,319,2.0,5.0,29,0.00,,,0.00,Wunderground v.1.15,2013-07-25 04:07:00,
2013-07-24 21:10:00,79.0,44.9,29.82,NW,319,2.0,2.0,30,0.00,,,0.00,Wunderground v.1.15,2013-07-25 04:10:00,
2013-07-24 21:14:00,78.7,44.7,29.82,NW,319,1.0,2.0,30,0.00,,,0.00,Wunderground v.1.15,2013-07-25 04:14:00,
2013-07-24 21:20:00,78.3,44.3,29.82,NW,319,1.0,1.0,30,0.00,,,0.00,Wunderground v.1.15,2013-07-25 04:20:00,
2013-07-24 21:25:00,77.8,46.4,29.83,NW,319,1.0,1.0,33,0.00,,,0.00,Wunderground v.1.15,2013-07-25 04:25:00,
2013-07-24 21:32:00,77.1,45.8,29.83,NW,319,1.0,1.0,33,0.00,,,0.00,Wunderground v.1.15,2013-07-25 04:32:00,
2013-07-24 21:38:00,76.7,43.8,29.83,NW,319,0.0,1.0,31,0.00,,,0.00,Wunderground v.1.15,2013-07-25 04:38:00,
2013-07-24 21:43:00,77.0,44.9,29.83,NW,319,1.0,3.0,32,0.00,,,0.00,Wunderground v.1.15,2013-07-25 04:43:00,
2013-07-24 21:49:00,77.4,45.2,29.83,NW,319,2.0,2.0,32,0.00,,,0.00,Wunderground v.1.15,2013-07-25 04:49:00,
2013-07-24 21:56:00,77.2,45.0,29.83,NW,319,1.0,2.0,32,0.00,,,0.00,Wunderground v.1.15,2013-07-25 04:56:00,
2013-07-24 22:02:00,76.8,45.5,29.83,NW,319,0.0,0.0,33,0.00,,,0.00,Wunderground v.1.15,2013-07-25 05:02:00,
2013-07-24 22:07:00,76.5,45.2,29.84,NW,319,0.0,0.0,33,0.00,,,0.00,Wunderground v.1.15,2013-07-25 05:07:00,
2013-07-24 22:14:00,76.2,45.8,29.83,NW,319,0.0,1.0,34,0.00,,,0.00,Wunderground v.1.15,2013-07-25 05:14:00,
2013-07-24 22:20:00,75.9,46.3,29.83,NW,319,1.0,1.0,35,0.00,,,0.00,Wunderground v.1.15,2013-07-25 05:20:00,
2013-07-24 22:26:00,75.6,45.2,29.83,NW,319,0.0,1.0,34,0.00,,,0.00,Wunderground v.1.15,2013-07-25 05:26:00,
2013-07-24 22:32:00,75.3,45.7,29.84,NW,319,0.0,0.0,35,0.00,,,0.00,Wunderground v.1.15,2013-07-25 05:32:00,
2013-07-24 22:37:00,74.8,46.1,29.84,NW,319,0.0,0.0,36,0.00,,,0.00,Wunderground v.1.15,2013-07-25 05:37:00,
2013-07-24 22:44:00,74.1,45.4,29.84,NW,319,0.0,0.0,36,0.00,,,0.00,Wunderground v.1.15,2013-07-25 05:44:00,
2013-07-24 22:50:00,73.9,45.3,29.84,NW,319,0.0,0.0,36,0.00,,,0.00,Wunderground v.1.15,2013-07-25 05:50:00,
2013-07-24 22:56:00,73.8,45.2,29.84,NW,319,0.0,1.0,36,0.00,,,0.00,Wunderground v.1.15,2013-07-25 05:56:00,
2013-07-24 23:02:00,73.6,45.0,29.84,NW,319,0.0,0.0,36,0.00,,,0.00,Wunderground v.1.15,2013-07-25 06:02:00,
2013-07-24 23:08:00,73.5,45.6,29.84,NW,319,0.0,0.0,37,0.00,,,0.00,Wunderground v.1.15,2013-07-25 06:08:00,
2013-07-24 23:14:00,73.3,45.4,29.84,NW,319,0.0,0.0,37,0.00,,,0.00,Wunderground v.1.15,2013-07-25 06:14:00,
2013-07-24 23:19:00,72.8,45.7,29.84,NW,319,0.0,0.0,38,0.00,,,0.00,Wunderground v.1.15,2013-07-25 06:19:00,
2013-07-24 23:25:00,72.4,45.4,29.84,NW,319,0.0,0.0,38,0.00,,,0.00,Wunderground v.1.15,2013-07-25 06:25:00,
2013-07-24 23:32:00,72.1,45.8,29.84,NW,319,0.0,0.0,39,0.00,,,0.00,Wunderground v.1.15,2013-07-25 06:32:00,
2013-07-24 23:38:00,71.6,45.3,29.84,NW,319,0.0,0.0,39,0.00,,,0.00,Wunderground v.1.15,2013-07-25 06:38:00,
2013-07-24 23:43:00,71.4,45.8,29.85,NW,319,0.0,0.0,40,0.00,,,0.00,Wunderground v.1.15,2013-07-25 06:43:00,
2013-07-24 23:50:00,70.8,45.9,29.85,NW,319,0.0,0.0,41,0.00,,,0.00,Wunderground v.1.15,2013-07-25 06:50:00,
2013-07-24 23:56:00,69.7,46.8,29.84,NW,319,0.0,0.0,44,0.00,,,0.00,Wunderground v.1.15,2013-07-25 06:56:00,